Andrews, TX

1:44 PM CST on November 24, 2017 (GMT -0600)
Andrews

Weather History for KE11 - November, 2013

Change the Weather History Date:

Thursday, November 21, 2013

  Actual Average (KMAF) Record (KMAF)
Temperature  
Mean Temperature 54 °F -  
Max Temperature 74 °F 61 °F 82 °F (2010)
Min Temperature 34 °F 36 °F 21 °F (2008)
Degree Days  
Heating Degree Days 10    
Growing Degree Days 4 (Base 50)    
Moisture  
Dew Point 48 °F    
Average Humidity 68    
Maximum Humidity 98    
Minimum Humidity 35    
Precipitation  
Precipitation 0.00 in - - ()
Sea Level Pressure  
Sea Level Pressure 30.03 in    
Wind  
Wind Speed 9 mph (SE)    
Max Wind Speed 24 mph    
Max Gust Speed 33 mph    
Visibility 8 miles    
Events      
Averages and records for this station are not official NWS values.
T = Trace of Precipitation, MM = Missing Value Source: NWS Daily Summary

Daily Weather History Graph

Daily Weather History Graph

Search for Another Location

Airport or City:

Trip Planner

Search our weather history database for the weather conditions in past years. The results will help you decide how hot, cold, wet, or windy it might be!

Date:

Astronomy

Nov. 21, 2013 Rise Set
Actual Time 7:25 AM CST 5:46 PM CST
Civil Twilight 6:58 AM CST 6:13 PM CST
Nautical Twilight 6:28 AM CST 6:43 PM CST
Astronomical Twilight 5:59 AM CST 7:12 PM CST
Moon 9:23 PM CST (11/21) 10:34 AM CST (11/21)
Length of Visible Light 11h 14m
Length of Day
10h 21m
Waning Gibbous, 85% of the Moon is Illuminated
Nov 21
Waning Gibbous
Nov 25
Last Quarter
Dec 2
New
Dec 9
First Quarter
Dec 17
Full

Hourly Weather History & Observations

Time (CST) Temp. Windchill Dew Point Humidity Pressure Visibility Wind Dir Wind Speed Gust Speed Precip Events Conditions
12:15 AM 60.1 °F - 57.4 °F 91% 29.91 in 7.0 mi South 12.7 mph 18.4 mph N/A   Overcast
12:35 AM 60.3 °F - 57.4 °F 90% 29.91 in 7.0 mi South 9.2 mph - N/A   Overcast
12:55 AM 60.4 °F - 57.4 °F 90% 29.91 in 7.0 mi SSW 12.7 mph 18.4 mph N/A   Overcast
1:15 AM 60.8 °F - 57.6 °F 89% 29.91 in 7.0 mi South 11.5 mph 16.1 mph N/A   Overcast
1:35 AM 60.8 °F - 57.4 °F 88% 29.91 in 7.0 mi SSW 11.5 mph - N/A   Overcast
1:55 AM 61.0 °F - 57.4 °F 88% 29.91 in 7.0 mi South 12.7 mph 16.1 mph N/A   Overcast
2:15 AM 61.0 °F - 57.6 °F 88% 29.91 in 7.0 mi South 10.4 mph - N/A   Overcast
2:35 AM 61.2 °F - 57.7 °F 88% 29.91 in 7.0 mi SSW 10.4 mph - N/A   Overcast
2:55 AM 61.2 °F - 57.7 °F 88% 29.92 in 7.0 mi SSW 9.2 mph - N/A   Overcast
3:15 AM 61.3 °F - 58.1 °F 89% 29.92 in 7.0 mi SSW 10.4 mph - N/A   Overcast
3:35 AM 61.3 °F - 57.9 °F 89% 29.92 in 7.0 mi South 9.2 mph - N/A   Overcast
3:55 AM 61.2 °F - 57.7 °F 88% 29.92 in 7.0 mi South 10.4 mph - N/A   Overcast
4:15 AM 61.0 °F - 58.1 °F 90% 29.92 in 7.0 mi South 6.9 mph - N/A   Overcast
4:35 AM 61.2 °F - 58.1 °F 90% 29.93 in 7.0 mi SSW 6.9 mph - N/A   Overcast
4:55 AM 61.2 °F - 58.3 °F 90% 29.93 in 7.0 mi SSW 8.1 mph - N/A   Overcast
5:15 AM 61.0 °F - 58.3 °F 91% 29.93 in 7.0 mi SSW 3.5 mph - N/A   Overcast
5:35 AM 60.8 °F - 58.3 °F 91% 29.94 in 7.0 mi SW 4.6 mph - N/A   Overcast
5:55 AM 60.3 °F - 58.1 °F 93% 29.94 in 7.0 mi SSW 4.6 mph - N/A   Overcast
6:15 AM 59.0 °F - 57.4 °F 94% 29.95 in 7.0 mi SSW 4.6 mph - N/A   Mostly Cloudy
6:35 AM 57.9 °F - 56.7 °F 96% 29.95 in 5.0 mi SSW 3.5 mph - N/A   Scattered Clouds
6:55 AM 56.7 °F - 55.9 °F 97% 29.96 in 4.0 mi SSW 5.8 mph - N/A   Clear
7:15 AM 56.3 °F - 55.6 °F 97% 29.97 in 4.0 mi SSW 4.6 mph - N/A   Clear
7:35 AM 56.8 °F - 56.3 °F 98% 29.97 in 3.0 mi SSW 4.6 mph - N/A   Mostly Cloudy
7:55 AM 57.2 °F - 56.5 °F 97% 29.98 in 3.0 mi SW 5.8 mph - N/A   Mostly Cloudy
8:15 AM 57.7 °F - 57.2 °F 98% 29.99 in 4.0 mi SW 5.8 mph - N/A   Overcast
8:35 AM 58.6 °F - 57.6 °F 96% 30.00 in 4.0 mi SW 3.5 mph - N/A   Overcast
8:55 AM 59.9 °F - 58.1 °F 94% 30.01 in 4.0 mi SW 5.8 mph - N/A   Mostly Cloudy
9:15 AM 60.8 °F - 58.1 °F 91% 30.02 in 5.0 mi SW 9.2 mph - N/A   Mostly Cloudy
9:35 AM 60.1 °F - 58.1 °F 93% 30.03 in 5.0 mi West 6.9 mph - N/A   Overcast
9:55 AM 60.8 °F - 57.4 °F 88% 30.04 in 7.0 mi WSW 5.8 mph - N/A   Overcast
10:15 AM 61.7 °F - 56.3 °F 82% 30.04 in 10.0 mi West 3.5 mph - N/A   Overcast
10:35 AM 63.5 °F - 56.3 °F 77% 30.04 in 10.0 mi WNW 4.6 mph - N/A   Mostly Cloudy
10:55 AM 64.4 °F - 55.4 °F 73% 30.04 in 10.0 mi Calm Calm - N/A   Scattered Clouds
11:15 AM 66.0 °F - 53.4 °F 64% 30.04 in 10.0 mi Calm Calm - N/A   Clear
11:35 AM 66.7 °F - 54.5 °F 65% 30.03 in 10.0 mi Calm Calm - N/A   Clear
11:55 AM 68.4 °F - 53.1 °F 58% 30.02 in 10.0 mi Calm Calm - N/A   Clear
12:15 PM 69.8 °F - 50.7 °F 51% 30.02 in 10.0 mi Calm Calm - N/A   Clear
12:35 PM 71.8 °F - 49.5 °F 45% 30.01 in 10.0 mi NNW 4.6 mph - N/A   Clear
12:55 PM 70.9 °F - 49.5 °F 47% 30.01 in 10.0 mi Calm Calm - N/A   Clear
1:15 PM 72.0 °F - 48.4 °F 43% 30.00 in 10.0 mi NE 4.6 mph - N/A   Clear
1:35 PM 72.7 °F - 47.5 °F 41% 29.99 in 10.0 mi Calm Calm - N/A   Clear
1:55 PM 73.4 °F - 47.5 °F 40% 29.99 in 10.0 mi North 4.6 mph - N/A   Clear
2:15 PM 73.6 °F - 47.5 °F 39% 29.99 in 10.0 mi North 3.5 mph - N/A   Clear
2:35 PM 74.1 °F - 46.8 °F 38% 29.98 in 10.0 mi Calm Calm - N/A   Clear
2:55 PM 73.9 °F - 45.7 °F 36% 29.99 in 10.0 mi Calm Calm - N/A   Clear
3:15 PM 74.1 °F - 45.5 °F 36% 29.99 in 10.0 mi NE 6.9 mph - N/A   Clear
3:35 PM 74.3 °F - 45.0 °F 35% 29.99 in 10.0 mi ENE 5.8 mph - N/A   Clear
3:55 PM 73.9 °F - 44.2 °F 35% 30.00 in 10.0 mi East 4.6 mph - N/A   Clear
4:15 PM 74.7 °F - 45.1 °F 35% 30.00 in 10.0 mi East 4.6 mph - N/A   Clear
4:35 PM 73.8 °F - 46.6 °F 38% 30.01 in 10.0 mi NE 6.9 mph - N/A   Clear
4:55 PM 73.2 °F - 46.4 °F 38% 30.02 in 10.0 mi ENE 6.9 mph - N/A   Clear
5:15 PM 72.3 °F - 46.6 °F 40% 30.03 in 10.0 mi ENE 5.8 mph - N/A   Clear
5:35 PM 70.9 °F - 46.4 °F 42% 30.03 in 10.0 mi East 5.8 mph - N/A   Clear
5:55 PM 68.0 °F - 46.4 °F 46% 30.04 in 10.0 mi ENE 5.8 mph - N/A   Clear
6:15 PM 65.1 °F - 45.5 °F 49% 30.05 in 10.0 mi ENE 4.6 mph - N/A   Clear
6:35 PM 59.4 °F - 37.2 °F 44% 30.07 in 7.0 mi NE 17.3 mph 27.6 mph N/A   Mostly Cloudy
6:55 PM 56.1 °F - 35.8 °F 46% 30.09 in 10.0 mi NE 18.4 mph 31.1 mph N/A   Scattered Clouds
7:15 PM 54.1 °F - 34.7 °F 48% 30.11 in 10.0 mi NE 17.3 mph 27.6 mph N/A   Clear
7:35 PM 51.4 °F - 33.4 °F 50% 30.12 in 10.0 mi NE 19.6 mph 26.5 mph N/A   Clear
7:55 PM 49.3 °F - 32.7 °F 53% 30.14 in 10.0 mi NE 19.6 mph 28.8 mph N/A   Clear
8:15 PM 47.3 °F - 32.0 °F 55% 30.15 in 10.0 mi NE 18.4 mph 25.3 mph N/A   Clear
8:35 PM 45.3 °F 37.6 °F 31.1 °F 58% 30.17 in 10.0 mi NE 19.6 mph 29.9 mph N/A   Clear
8:55 PM 43.5 °F 35.0 °F 30.2 °F 59% 30.18 in 10.0 mi NE 20.7 mph 26.5 mph N/A   Clear
9:15 PM 41.9 °F 32.8 °F 29.1 °F 61% 30.19 in 10.0 mi NE 20.7 mph 27.6 mph N/A   Clear
9:35 PM 40.6 °F 31.7 °F 28.4 °F 62% 30.21 in 10.0 mi NE 18.4 mph 26.5 mph N/A   Clear
9:55 PM 39.6 °F 31.7 °F 27.9 °F 63% 30.22 in 10.0 mi NE 13.8 mph 25.3 mph N/A   Clear
10:15 PM 38.3 °F 29.7 °F 27.1 °F 64% 30.24 in 10.0 mi NE 15.0 mph 27.6 mph N/A   Clear
10:35 PM 37.6 °F 28.4 °F 26.6 °F 65% 30.25 in 10.0 mi NNE 16.1 mph 20.7 mph N/A   Scattered Clouds
10:55 PM 37.0 °F 26.4 °F 25.7 °F 64% 30.27 in 10.0 mi NE 20.7 mph 25.3 mph N/A   Overcast
11:15 PM 36.0 °F 25.3 °F 24.8 °F 64% 30.27 in 10.0 mi NE 19.6 mph 27.6 mph N/A   Overcast
11:35 PM 35.1 °F 23.3 °F 23.9 °F 64% 30.27 in 10.0 mi NE 23.0 mph 32.2 mph N/A   Overcast
11:55 PM 34.7 °F 22.5 °F 23.4 °F 63% 30.28 in 10.0 mi NE 24.2 mph 33.4 mph N/A   Overcast